Gilead, NE

10:21 AM CDT on August 28, 2016 (GMT -0500)
Hebron Municipal

Weather History for KHJH - January, 2013

Change the Weather History Date:

Wednesday, January 2, 2013

  Actual Average Record
Temperature  
Mean Temperature 22 °F -  
Max Temperature 36 °F 32 °F 60 °F (1955)
Min Temperature 7 °F 12 °F -17 °F (1974)
Degree Days  
Heating Degree Days 44    
Moisture  
Dew Point 20 °F    
Average Humidity 82    
Maximum Humidity 89    
Minimum Humidity 73    
Precipitation  
Precipitation 0.00 in - - ()
Sea Level Pressure  
Sea Level Pressure 30.14 in    
Wind  
Wind Speed 6 mph (West)    
Max Wind Speed 12 mph    
Max Gust Speed -    
Visibility 10 miles    
Events Snow    
Averages and records for this station are not official NWS values.
T = Trace of Precipitation, MM = Missing Value Source: NWS Daily Summary

Daily Weather History Graph

Daily Weather History Graph

Search for Another Location

Airport or City:

Trip Planner

Search our weather history database for the weather conditions in past years. The results will help you decide how hot, cold, wet, or windy it might be!

Date:

Astronomy

Jan. 02, 2013 Rise Set
Actual Time 7:52 AM CST 5:16 PM CST
Civil Twilight 7:22 AM CST 5:47 PM CST
Nautical Twilight 6:48 AM CST 6:20 PM CST
Astronomical Twilight 6:15 AM CST 6:53 PM CST
Moon 10:50 PM CST (1/2) 10:34 AM CST (1/2)
Length of Visible Light 10h 24m
Length of Day
9h 23m
Waning Gibbous, 75% of the Moon is Illuminated
Jan 2
Waning Gibbous
Jan 4
Last Quarter
Jan 11
New
Jan 18
First Quarter
Jan 26
Full

Hourly Weather History & Observations

Time (CST) Temp. Windchill Dew Point Humidity Pressure Visibility Wind Dir Wind Speed Gust Speed Precip Events Conditions
12:15 AM 17.2 °F 4.5 °F 13.3 °F 84% 30.14 in 10.0 mi SW 11.5 mph - N/A   Clear
12:35 AM 15.8 °F 4.2 °F 12.2 °F 86% 30.14 in 10.0 mi SW 9.2 mph - N/A   Clear
12:55 AM 14.9 °F 4.0 °F 11.5 °F 86% 30.14 in 10.0 mi WSW 8.1 mph - N/A   Clear
1:15 AM 14.7 °F 5.9 °F 11.5 °F 87% 30.13 in 10.0 mi WSW 5.8 mph - N/A   Clear
1:35 AM 15.3 °F 7.9 °F 12.0 °F 87% 30.13 in 10.0 mi West 4.6 mph - N/A   Clear
1:55 AM 14.0 °F 3.9 °F 11.1 °F 88% 30.12 in 10.0 mi SW 6.9 mph - N/A   Clear
2:15 AM 13.1 °F 5.4 °F 10.4 °F 89% 30.12 in 10.0 mi WSW 4.6 mph - N/A   Clear
2:35 AM 12.7 °F 5.0 °F 10.0 °F 89% 30.11 in 10.0 mi West 4.6 mph - N/A   Clear
2:55 AM 12.9 °F 1.6 °F 10.2 °F 89% 30.11 in 10.0 mi WSW 8.1 mph - N/A   Clear
3:35 AM 12.7 °F 2.4 °F 10.0 °F 89% 30.10 in 10.0 mi WSW 6.9 mph - N/A   Clear
3:55 AM 13.1 °F 5.4 °F 10.4 °F 89% 30.10 in 10.0 mi West 4.6 mph - N/A   Clear
4:15 AM 12.2 °F -0.2 °F 9.0 °F 87% 30.08 in 10.0 mi SW 9.2 mph - N/A   Clear
4:35 AM 11.8 °F 2.5 °F 8.6 °F 87% 30.08 in 10.0 mi WSW 5.8 mph - N/A   Clear
4:55 AM 11.8 °F 1.3 °F 8.4 °F 86% 30.07 in 10.0 mi SW 6.9 mph - N/A   Clear
5:15 AM 11.5 °F 0.9 °F 7.7 °F 85% 30.09 in 10.0 mi West 6.9 mph - N/A   Clear
5:35 AM 11.3 °F 0.7 °F 7.7 °F 85% 30.08 in 10.0 mi West 6.9 mph - N/A   Clear
5:55 AM 11.1 °F - 7.3 °F 85% 30.08 in 10.0 mi Calm Calm - N/A   Clear
6:15 AM 9.7 °F - 6.4 °F 87% 30.07 in 10.0 mi Calm Calm - N/A   Clear
6:35 AM 9.9 °F -1.1 °F 6.3 °F 85% 30.09 in 10.0 mi West 6.9 mph - N/A   Clear
6:55 AM 10.4 °F 0.8 °F 6.1 °F 83% 30.09 in 10.0 mi WSW 5.8 mph - N/A   Clear
7:15 AM 10.0 °F 1.8 °F 5.9 °F 83% 30.08 in 10.0 mi WSW 4.6 mph - N/A   Clear
7:35 AM 9.5 °F -0.3 °F 5.5 °F 84% 30.09 in 10.0 mi West 5.8 mph - N/A   Clear
7:55 AM 8.6 °F - 4.8 °F 85% 30.07 in 10.0 mi Calm Calm - N/A   Clear
8:15 AM 7.9 °F - 4.1 °F 85% 30.08 in 10.0 mi Calm Calm - N/A   Clear
8:35 AM 8.1 °F 1.4 °F 4.1 °F 84% 30.09 in 10.0 mi West 3.5 mph - N/A   Clear
8:55 AM 9.5 °F 3.0 °F 5.0 °F 82% 30.10 in 10.0 mi West 3.5 mph - N/A   Scattered Clouds
9:15 AM 12.6 °F 6.5 °F 7.5 °F 80% 30.10 in 10.0 mi West 3.5 mph - N/A   Mostly Cloudy
9:35 AM 15.4 °F 9.8 °F 10.6 °F 81% 30.12 in 10.0 mi West 3.5 mph - N/A   Overcast
9:55 AM 19.0 °F 11.1 °F 14.5 °F 83% 30.12 in 10.0 mi WNW 5.8 mph - N/A   Overcast
10:15 AM 22.3 °F 13.9 °F 17.6 °F 82% 30.12 in 10.0 mi West 6.9 mph - N/A   Mostly Cloudy
10:35 AM 24.8 °F 17.9 °F 20.1 °F 82% 30.13 in 10.0 mi West 5.8 mph - N/A   Overcast
10:55 AM 27.3 °F 19.9 °F 22.8 °F 83% 30.13 in 10.0 mi WNW 6.9 mph - N/A   Overcast
11:15 AM 28.6 °F 22.4 °F 24.4 °F 84% 30.13 in 7.0 mi WNW 5.8 mph - N/A Snow Light Snow
11:35 AM 29.8 °F 24.9 °F 25.9 °F 85% 30.13 in 10.0 mi WNW 4.6 mph - N/A   Overcast
11:55 AM 32.0 °F 25.6 °F 27.5 °F 83% 30.12 in 10.0 mi NW 6.9 mph - N/A   Overcast
12:15 PM 32.5 °F 26.2 °F 28.2 °F 84% 30.10 in 10.0 mi NW 6.9 mph - N/A   Mostly Cloudy
12:35 PM 33.8 °F 25.8 °F 28.6 °F 81% 30.11 in 10.0 mi NW 10.4 mph - N/A   Scattered Clouds
12:55 PM 34.2 °F 26.2 °F 28.6 °F 80% 30.10 in 10.0 mi WNW 10.4 mph - N/A   Scattered Clouds
1:15 PM 35.1 °F 28.6 °F 28.6 °F 77% 30.10 in 10.0 mi NW 8.1 mph - N/A   Scattered Clouds
1:35 PM 35.4 °F 29.7 °F 27.9 °F 74% 30.10 in 10.0 mi WNW 6.9 mph - N/A   Clear
1:55 PM 36.0 °F 29.6 °F 28.2 °F 73% 30.10 in 10.0 mi NW 8.1 mph - N/A   Clear
2:15 PM 35.2 °F 29.5 °F 28.4 °F 76% 30.10 in 10.0 mi WNW 6.9 mph - N/A   Scattered Clouds
2:35 PM 35.6 °F 29.9 °F 28.8 °F 76% 30.10 in 10.0 mi WNW 6.9 mph - N/A   Scattered Clouds
2:55 PM 36.0 °F 31.1 °F 29.1 °F 76% 30.10 in 10.0 mi WNW 5.8 mph - N/A   Mostly Cloudy
3:15 PM 36.3 °F 30.8 °F 29.1 °F 75% 30.11 in 10.0 mi WNW 6.9 mph - N/A   Overcast
3:35 PM 36.5 °F 29.7 °F 29.1 °F 75% 30.12 in 10.0 mi WNW 9.2 mph - N/A   Overcast
3:55 PM 36.5 °F 31.0 °F 28.9 °F 74% 30.12 in 10.0 mi WNW 6.9 mph - N/A   Overcast
4:15 PM 36.3 °F 31.6 °F 28.9 °F 75% 30.13 in 10.0 mi WNW 5.8 mph - N/A   Overcast
4:35 PM 36.0 °F 30.3 °F 29.1 °F 76% 30.13 in 10.0 mi WNW 6.9 mph - N/A   Overcast
4:55 PM 35.8 °F 29.4 °F 28.9 °F 76% 30.14 in 10.0 mi NW 8.1 mph - N/A   Overcast
5:15 PM 35.2 °F 28.1 °F 29.1 °F 78% 30.15 in 10.0 mi WNW 9.2 mph - N/A   Overcast
5:35 PM 34.9 °F 28.3 °F 27.9 °F 76% 30.16 in 10.0 mi NW 8.1 mph - N/A   Overcast
5:55 PM 34.7 °F 28.1 °F 27.5 °F 75% 30.16 in 10.0 mi NNW 8.1 mph - N/A   Overcast
6:15 PM 34.3 °F 27.7 °F 27.9 °F 77% 30.17 in 10.0 mi NNW 8.1 mph - N/A   Overcast
6:35 PM 34.5 °F 27.9 °F 27.9 °F 77% 30.17 in 10.0 mi NNW 8.1 mph - N/A   Overcast
6:55 PM 34.2 °F 30.0 °F 27.5 °F 77% 30.18 in 10.0 mi NNW 4.6 mph - N/A   Overcast
7:15 PM 33.8 °F 29.6 °F 27.5 °F 78% 30.19 in 10.0 mi NW 4.6 mph - N/A   Overcast
7:35 PM 33.3 °F 30.2 °F 27.1 °F 78% 30.19 in 10.0 mi WNW 3.5 mph - N/A   Overcast
7:55 PM 32.9 °F 28.5 °F 27.0 °F 79% 30.19 in 10.0 mi WSW 4.6 mph - N/A   Overcast
8:15 PM 32.0 °F - 27.1 °F 82% 30.20 in 10.0 mi Calm Calm - N/A   Overcast
8:35 PM 32.0 °F - 27.1 °F 82% 30.20 in 10.0 mi Calm Calm - N/A   Overcast
8:55 PM 32.0 °F - 27.3 °F 83% 30.21 in 10.0 mi Calm Calm - N/A   Overcast
9:15 PM 32.0 °F 28.7 °F 27.1 °F 82% 30.21 in 10.0 mi WSW 3.5 mph - N/A   Overcast
9:35 PM 32.0 °F 28.7 °F 27.0 °F 82% 30.22 in 10.0 mi West 3.5 mph - N/A   Overcast
9:55 PM 32.0 °F 28.7 °F 27.0 °F 82% 30.23 in 10.0 mi West 3.5 mph - N/A   Overcast
10:15 PM 32.0 °F 28.7 °F 26.8 °F 81% 30.23 in 10.0 mi WSW 3.5 mph - N/A   Overcast
10:35 PM 32.0 °F 25.6 °F 26.6 °F 80% 30.24 in 10.0 mi WSW 6.9 mph - N/A   Overcast
10:55 PM 30.9 °F 26.2 °F 25.7 °F 81% 30.24 in 10.0 mi West 4.6 mph - N/A   Mostly Cloudy
11:15 PM 30.0 °F 26.5 °F 25.5 °F 83% 30.24 in 10.0 mi West 3.5 mph - N/A   Mostly Cloudy
11:35 PM 30.0 °F - 25.3 °F 83% 30.25 in 10.0 mi Calm Calm - N/A   Overcast
11:55 PM 29.3 °F 25.6 °F 24.8 °F 83% 30.25 in 10.0 mi WNW 3.5 mph - N/A   Overcast